GFSSE_con_sbcape_000.txt.gz
CAPE
429 776 870 990 1147 1217 1260 1274 1285 1392 1691 1701 1701 1764 1679 1870 1430 1295 1096 968 815 786 795 790 752 936 1425 1393 1309 1567 1579 1498 1416 1573 2111 1807 1715 1874 1929 1883 1669 1115 1871
617 967 937 1225 1495 1466 1495 1483 1503 1594 1805 1620 1560 1687 1734 2010 1611 1346 1140 1047 948 869 911 1025 970 887 1408 1682 1497 1450 1550 1596 1807 1773 1899 1794 2060 1877 2220 1912 1558 1436 1719
683 1053 1179 1321 1636 1793 1829 1838 1902 2030 1951 1819 1893 1631 1566 1841 1803 1720 1426 1036 926 860 941 1176 1517 1204 1952 1949 1583 1544 1697 1682 1611 1753 1835 780 836 1974 2207 2089 1806 1945 1842
715 1184 1344 1402 1781 1974 1996 2001 1912 2103 2158 2173 2049 1985 1850 1885 1996 1604 1123 1062 1131 1156 1389 1464 1519 1773 1588 1340 999 1100 1268 1472 1608 1604 914 850 632 1837 2232 2064 1898 1739 1764
636 931 1407 1522 1775 2144 2389 2344 2449 2358 2301 2392 2387 2264 2106 1869 1535 1281 1132 1104 1069 1159 1271 1448 1590 1830 1552 1302 1045 1100 1246 1217 1317 1279 1295 1210 858 1146 1442 2078 1837 1769 1581
415 719 1144 1474 1762 1924 2008 2126 2309 2445 2374 2234 2183 2142 1991 1739 1018 780 874 828 930 1009 1121 996 761 582 694 1099 1106 1186 1168 1285 1055 1121 1305 1328 752 1237 1018 1126 1571 1426 1645
266 544 607 1507 1603 1758 1811 1761 1803 1986 2068 2067 2030 1950 1746 1389 1226 947 768 697 729 567 623 761 942 961 1047 1031 885 700 719 1253 1234 1020 1234 1372 1231 1010 591 691 1099 1368 1494
229 536 634 1244 1555 1665 1717 1620 1595 1656 1585 1523 1664 1760 1526 1241 1035 793 480 343 247 189 156 186 247 317 409 514 642 803 847 890 809 1163 915 1038 968 1036 913 761 770 1209 1258
161 394 660 722 905 1094 1070 1168 1318 1541 1378 1218 1193 1122 1114 958 681 450 303 161 123 76 44 10 25 26 49 62 65 128 183 234 1009 880 697 696 446 717 643 690 531 515 1062
415 420 696 895 835 980 884 624 811 1074 1197 935 773 557 574 577 261 51 0 24 19 0 0 0 0 0 0 0 0 0 0 27 614 564 463 338 189 455 585 337 422 173 579
646 920 966 943 947 901 641 626 343 622 920 864 684 412 353 618 563 194 0 0 0 0 0 0 0 0 0 0 0 0 0 84 148 181 239 0 26 174 294 370 552 466 561
987 1210 1286 1353 1154 912 303 755 709 639 804 1110 1129 1194 874 1005 897 331 86 0 0 0 0 0 0 0 0 0 0 0 0 0 8 25 48 2 20 101 183 222 254 340 315
1253 1409 1386 1598 1508 1144 359 628 419 352 533 822 1417 1540 1202 1172 875 654 501 158 170 0 25 0 0 0 0 0 0 0 0 0 0 0 0 0 0 0 0 8 100 229 280
1119 1486 1677 1602 1722 1673 770 456 488 474 423 587 800 1471 1246 945 789 641 282 83 30 26 87 2 3 2 0 0 0 0 0 0 0 0 0 0 0 0 0 0 0 0 70
1152 1750 2077 2054 1879 1357 1573 794 936 870 442 641 693 613 1079 664 492 255 60 0 0 22 38 52 9 0 0 0 0 0 0 0 0 0 0 0 0 0 0 0 0 0 0
1341 1829 2349 2264 1736 835 785 990 629 372 247 234 144 119 483 652 176 9 0 0 0 0 1 23 1 0 0 0 0 0 0 0 0 0 0 0 0 0 0 0 0 0 0
919 1408 2146 1874 647 608 352 236 50 8 21 9 10 25 67 101 29 26 0 0 0 0 27 64 6 0 0 0 0 0 0 0 0 0 0 0 0 0 0 0 0 0 0
932 1314 1572 785 180 153 67 71 32 23 40 39 36 31 34 53 63 55 22 11 17 39 22 45 31 0 0 0 0 0 0 0 0 0 0 0 0 0 0 0 0 0 0
453 931 1207 508 0 16 82 87 91 100 64 0 8 0 7 27 44 88 47 41 82 76 55 58 41 3 0 0 0 0 0 0 0 0 0 0 0 0 0 0 0 0 0
192 732 838 93 21 94 85 46 4 1 0 0 0 0 0 0 0 11 19 44 88 94 64 37 54 38 6 0 0 0 0 0 0 0 0 0 0 0 0 0 0 0 0
368 490 329 75 0 0 0 0 0 0 0 0 0 0 0 0 0 0 4 25 50 71 87 123 106 101 64 28 4 0 0 0 0 0 0 0 0 0 0 0 0 0 0
29 34 0 0 0 0 0 0 0 0 0 0 0 0 0 0 0 0 0 0 0 0 16 41 90 105 129 93 37 10 9 18 21 0 0 0 0 0 0 0 0 0 0
0 0 0 0 0 0 0 0 0 0 0 0 0 0 0 0 0 0 0 0 0 0 0 0 9 25 56 112 196 88 52 57 101 70 22 0 0 0 0 0 0 0 0
0 0 0 0 0 0 0 0 0 0 0 0 0 0 0 0 0 0 0 0 0 0 0 0 0 1 15 18 101 152 174 128 115 95 45 27 0 0 0 0 0 0 0
0 0 0 0 0 0 0 0 0 0 0 0 0 0 0 0 0 0 0 0 0 0 0 0 0 0 3 27 45 73 65 89 61 45 95 18 9 1 0 0 0 0 0
0 0 0 0 0 0 0 0 0 0 0 0 0 0 0 0 0 0 0 0 0 0 0 0 1 4 8 13 10 12 13 0 1 15 22 41 84 1 11 2 0 1 1

GFSSE_con_sbcape_003.txt.gz
CAPE
620 667 1018 1062 1266 1106 1102 1157 1311 1490 1612 1744 1654 1646 1589 1276 1179 1145 1065 999 961 937 1004 1135 1122 895 1213 1544 1555 1348 1636 1745 1335 1189 1411 1645 1581 1814 1789 1747 1850 1390 1695
812 864 1053 1352 1291 1413 1378 1365 1525 1442 1674 1639 1631 1672 1458 1587 1612 1500 1308 1187 1116 1116 1158 1315 1624 1152 1433 1745 1838 1600 1676 1867 1769 1643 1686 1315 1573 1633 1904 1776 1770 1377 1455
848 881 1049 1553 1719 1584 1360 1359 1504 1872 1984 1897 1746 1739 1745 1765 1782 1651 1281 1226 1291 1413 1550 1589 1786 1988 2234 2284 1738 1702 1814 1937 1920 1967 1905 486 1242 734 1745 1626 1702 1500 1367
933 1027 1333 1613 1897 1638 1818 1763 1879 1926 2032 1943 1929 2010 2059 1968 1733 1521 1338 1295 1360 1474 1663 1806 1902 2025 1719 1637 1285 1263 1392 1570 1735 1851 1019 800 1068 870 1583 1868 1586 1889 1455
823 1179 1567 1666 1965 2216 2297 2071 2062 2161 2346 2393 2270 2105 2192 1848 1334 1148 1128 1078 1177 1273 1286 1219 1120 1392 1825 1600 1284 1213 1250 1354 1478 1563 1128 1324 1016 1040 1719 1618 1784 1806 1798
541 1023 1386 1694 1853 2096 2200 2211 2377 2360 2246 2155 2200 2085 1933 1421 1161 1017 903 964 926 777 816 944 1038 947 898 1021 1051 1108 1256 1532 1582 925 1189 1314 549 1225 1163 1201 1279 1204 1471
208 412 1241 1623 1796 1861 1838 1824 1970 2010 1980 1930 1924 1859 1559 1381 1169 830 658 520 346 277 214 295 439 667 970 1192 1326 1276 1029 1264 1073 921 945 1134 1045 1159 777 782 876 1010 1188
184 367 434 1265 1672 1627 1632 1565 1603 1550 1404 1373 1482 1360 1208 986 742 521 364 297 222 146 75 25 42 93 152 290 379 571 592 711 588 960 1094 1065 1007 987 1027 817 700 531 679
111 323 428 504 794 1187 1132 1234 1401 1365 1187 1097 910 905 896 700 467 259 188 105 52 12 4 0 0 0 1 17 72 128 205 417 574 516 607 748 554 809 832 989 904 605 433
48 355 640 622 534 773 853 790 1019 1138 1057 851 659 527 570 509 287 40 55 24 0 0 0 0 0 0 0 0 0 0 0 152 545 214 466 28 242 531 735 598 524 1053 723
213 577 753 773 594 503 245 409 383 625 857 746 682 499 487 797 540 329 30 3 0 0 0 0 0 0 0 0 0 0 0 62 5 70 157 1 34 246 365 377 505 610 856
638 668 1256 1166 897 527 12 246 162 137 651 700 732 809 658 645 550 253 167 109 23 0 0 0 0 0 0 0 0 0 0 0 0 2 40 0 0 30 158 203 283 362 419
693 618 1227 1716 1172 511 117 239 208 160 204 439 760 911 706 699 640 464 388 437 535 129 96 1 8 9 0 0 0 0 0 0 0 0 0 0 0 0 0 0 0 48 195
514 394 1323 1768 1208 765 406 291 282 219 240 221 476 600 606 438 414 383 151 48 13 20 30 36 27 4 0 0 0 0 0 0 0 0 0 0 0 0 0 0 0 0 0
324 509 1059 1684 787 370 578 523 585 559 402 359 296 246 298 285 272 80 16 0 0 1 10 8 1 0 0 0 0 0 0 0 0 0 0 0 0 0 0 0 0 0 0
242 747 1144 1603 835 198 232 563 624 345 154 113 43 39 96 156 132 57 9 0 0 0 0 0 13 0 0 0 0 0 0 0 0 0 0 0 0 0 0 0 0 0 0
453 594 1390 1541 616 110 233 268 75 3 1 3 0 17 23 53 66 67 47 33 15 41 34 45 13 12 1 0 0 0 0 0 0 0 0 0 0 0 0 0 0 0 0
379 591 1108 1263 282 50 100 53 24 30 23 40 29 19 33 62 68 110 72 79 118 144 80 103 33 32 29 17 18 0 0 0 0 0 0 0 0 0 0 0 0 0 0
362 502 846 1161 37 14 91 88 77 50 50 10 8 15 16 13 12 71 82 179 402 226 301 300 227 269 188 123 47 42 8 0 1 0 0 0 0 0 0 0 0 0 0
239 280 680 812 8 41 98 90 19 2 3 0 0 2 7 20 30 61 100 267 276 262 338 381 576 330 384 313 94 105 159 84 9 8 3 0 0 0 0 0 0 0 0
443 356 422 204 113 54 36 0 0 0 0 0 4 0 11 6 0 0 1 67 129 149 320 368 377 385 373 387 412 324 233 142 144 51 50 5 10 12 17 1 11 0 0
465 492 249 54 0 0 0 0 0 0 0 3 7 0 0 0 0 0 0 0 19 13 181 272 373 331 308 377 391 345 184 152 205 170 112 94 59 19 16 36 54 14 0
57 30 2 0 0 0 0 0 0 0 0 0 0 0 0 0 0 0 0 0 0 36 36 210 185 231 167 195 399 313 150 122 235 226 375 170 189 185 55 35 33 0 0
0 0 0 0 0 0 0 0 0 0 0 0 0 0 0 0 0 0 0 0 0 2 46 54 17 132 118 77 151 93 246 193 176 179 249 256 193 90 241 171 77 0 0
0 0 0 0 0 0 0 0 0 0 9 15 8 0 0 0 0 0 0 0 0 0 7 28 52 15 18 46 24 52 49 42 105 10 15 84 255 70 28 49 17 3 7
0 0 0 0 0 0 0 0 0 0 0 0 0 0 0 0 0 0 0 0 11 23 15 30 41 48 20 26 25 13 14 7 6 7 4 11 95 67 17 6 21 22 18

GFSSE_con_sbcape_006.txt.gz
CAPE
583 561 1039 1368 1260 1251 1221 1337 1394 1422 1514 1587 1644 1520 1410 1370 1388 1350 1289 1352 1396 1254 1260 1394 1810 1739 1742 1996 2280 1933 1888 2029 1684 1324 1250 769 1037 1490 1492 1918 1504 923 1045
697 641 1143 1305 1401 1411 1445 1498 1628 1727 1756 1717 1642 1642 1621 1632 1473 1245 1199 1248 1398 1467 1588 1611 1813 1964 2158 2352 1925 1909 1972 2002 2058 1913 1772 1691 1176 1143 1279 1711 1827 897 900
690 730 946 1339 1521 1499 1573 1879 1901 1966 1937 1770 1719 1656 1766 1579 1424 1243 1253 1281 1321 1404 1569 1664 1860 1826 1668 1606 1437 1538 1620 1780 1816 1808 2007 1028 623 454 852 1482 2039 1802 1362
926 981 1131 1410 1595 1705 1795 1745 1845 1866 1694 1906 1875 1713 1674 1551 1301 1107 1040 1248 1181 1155 1181 1212 1194 1697 1662 1434 1313 1355 1365 1400 1492 1564 1113 590 941 829 1168 1773 2006 2183 1702
1208 1143 1365 1485 1585 1874 2005 1992 1882 1869 1988 2004 1991 1859 1488 1196 913 818 887 1099 869 830 904 993 920 803 841 1092 1204 1327 1331 1365 1360 1002 682 693 303 755 689 1555 1509 1917 1665
947 1107 1097 1295 1547 1881 2016 2027 2030 1898 1851 1899 1891 1620 1325 1033 787 673 665 452 326 278 368 453 586 765 942 1096 1181 1073 955 1056 1207 576 216 717 36 62 546 1393 1681 1725 1411
728 997 1116 1160 1404 1576 1610 1511 1630 1610 1604 1574 1448 1238 1079 861 543 395 295 205 126 92 56 31 43 105 200 380 440 647 771 773 467 244 532 448 1 192 761 738 1027 1145 1060
397 674 711 1196 1257 1291 1333 1324 1270 1174 1245 1330 1248 811 828 572 371 280 195 115 44 21 8 0 0 0 11 43 114 299 314 375 202 229 687 695 151 2 625 778 835 607 433
79 74 285 490 702 889 896 1011 1029 1050 1005 844 798 766 637 485 333 172 88 29 0 0 0 0 0 0 0 0 2 36 48 131 74 144 190 236 794 859 796 931 801 594 299
202 301 434 472 434 402 510 743 935 945 822 696 555 507 554 408 292 153 113 2 0 0 0 0 0 0 0 0 0 0 0 0 0 61 33 87 477 594 663 718 571 983 682
190 574 557 482 618 884 383 445 713 850 776 639 606 427 238 489 305 94 28 16 0 0 0 0 0 0 0 0 0 0 0 0 0 0 67 97 102 288 448 400 442 495 697
422 506 1119 831 750 244 47 300 780 473 639 734 751 778 774 672 561 191 221 98 81 20 1 0 0 0 0 0 0 0 0 0 0 0 0 0 0 2 110 275 327 369 374
501 572 1309 1395 1039 624 390 399 401 398 427 1020 1147 729 814 580 706 623 559 158 115 42 127 0 0 0 0 0 0 0 0 0 0 0 0 0 0 0 0 2 21 63 184
389 348 1394 1251 1127 743 754 403 548 506 313 482 495 695 698 540 563 243 122 0 0 1 0 5 0 0 0 0 0 0 0 0 0 0 0 0 0 0 0 0 0 0 0
312 380 1037 1108 1064 1310 636 1191 1048 731 656 468 576 489 377 322 377 236 80 18 5 0 0 0 0 0 0 0 0 0 0 0 0 0 0 0 0 0 0 0 0 0 0
239 786 1399 1253 984 676 785 790 1104 666 588 657 183 37 125 174 213 159 58 56 23 15 13 1 0 0 0 0 0 0 0 0 0 0 0 0 0 0 0 0 0 0 0
136 562 1099 1202 351 475 587 638 573 28 3 65 63 53 52 84 106 158 102 89 95 113 79 47 61 19 26 2 0 0 0 0 0 0 0 0 0 0 0 0 0 0 0
379 154 425 1030 640 309 517 48 74 116 103 73 134 123 52 62 92 141 130 147 162 239 125 123 94 58 30 17 4 0 0 0 0 0 0 0 0 0 0 0 14 0 0
154 471 896 475 318 134 249 91 79 87 80 53 10 66 24 14 115 95 81 140 187 157 130 166 117 113 119 106 92 24 3 6 0 0 0 0 0 0 0 0 0 0 0
364 316 872 86 0 21 157 103 14 15 26 52 40 6 0 23 8 29 14 72 209 147 80 120 199 95 89 81 82 59 32 11 4 0 0 0 0 0 0 0 0 0 0
550 272 70 225 150 73 95 6 0 0 0 6 3 0 0 2 0 0 0 0 0 0 2 13 2 0 2 48 44 37 16 12 100 25 9 10 3 0 0 0 0 0 0
365 222 117 55 2 0 0 0 0 0 0 0 6 0 0 0 0 0 0 1 0 0 0 0 17 0 0 0 18 12 0 0 0 0 10 54 21 11 0 0 0 0 0
42 25 0 0 0 0 0 0 0 0 0 0 0 0 0 0 0 0 0 0 0 0 0 0 0 0 0 0 0 0 3 0 0 0 0 0 2 59 21 1 2 3 1
1 1 0 0 0 0 0 0 0 0 0 0 0 0 0 0 0 0 0 0 0 0 0 0 0 0 0 0 0 0 0 0 4 0 0 0 0 24 94 64 27 0 5
0 5 0 0 0 0 0 0 0 0 0 0 0 0 0 0 0 0 0 0 0 0 0 4 4 11 1 0 0 0 0 0 0 0 0 0 0 0 0 0 0 0 0
0 0 0 0 0 0 0 0 0 0 0 0 0 0 0 0 0 0 0 0 1 8 13 27 8 0 0 0 0 0 0 0 4 1 2 0 1 0 0 0 2 0 0

GFSSE_con_sbcape_009.txt.gz
CAPE
462 777 867 1016 1031 1039 1065 1089 1115 1233 1361 1329 1271 1242 1285 1152 1085 1184 1229 1380 1473 1343 1471 1590 1794 1847 1930 2174 1741 1578 1807 2043 2027 1995 1462 1486 1502 1254 1242 1620 1211 845 1330
490 765 847 1020 1139 1194 1349 1334 1389 1390 1380 1436 1421 1440 1467 1301 1032 997 982 1035 1145 1199 1354 1481 1704 1650 1511 1496 1316 1386 1569 1821 1855 1864 1863 1331 1063 1127 1006 1099 994 805 1383
604 738 898 977 1164 1440 1543 1575 1607 1546 1564 1558 1598 1609 1367 1103 992 856 841 966 983 991 1080 1069 1312 1517 1470 1369 1245 1218 1378 1540 1527 1570 1595 796 724 1161 834 1297 1049 1469 1324
660 826 915 1023 1213 1376 1428 1503 1530 1597 1639 1742 1715 1410 1207 958 743 676 772 1036 760 692 763 766 775 738 791 887 973 1066 1167 1445 1437 1448 569 547 503 299 96 578 1289 1159 1183
936 1032 1064 1083 1336 1475 1486 1518 1594 1647 1729 1750 1669 961 935 727 633 666 504 604 311 309 366 453 510 608 751 902 993 1007 922 1061 1047 696 193 499 113 317 445 767 1223 1295 1144
757 882 1047 1231 1345 1483 1576 1574 1491 1486 1486 1559 1381 1097 856 639 528 344 204 102 56 39 36 28 21 44 142 293 392 442 573 669 597 76 143 391 360 631 559 706 821 882 1000
645 743 872 1036 1178 1348 1467 1408 1332 1299 1287 1259 1205 1119 727 434 264 180 102 46 8 0 0 0 0 0 0 61 75 190 222 217 104 2 216 173 181 196 15 734 796 825 673
610 625 785 867 857 941 1029 974 897 983 1076 1049 976 938 567 399 296 139 57 8 0 0 0 0 0 0 0 0 0 13 3 15 0 2 451 128 193 290 46 174 974 637 303
365 358 412 508 572 517 554 558 595 696 710 734 718 756 560 396 319 212 78 0 0 0 0 0 0 0 0 0 0 0 0 0 0 0 237 275 583 501 897 1129 1575 807 723
4 60 86 94 130 128 341 429 461 488 419 322 397 477 337 268 190 248 88 36 0 0 0 0 0 0 0 0 0 0 0 0 0 0 0 189 890 653 694 781 780 1219 1145
24 38 17 7 10 27 68 364 454 522 428 282 314 292 166 90 77 70 42 53 8 0 0 0 0 0 0 0 0 0 0 0 0 0 0 123 170 198 346 387 465 650 807
38 119 27 1 213 0 20 100 98 202 283 220 254 214 89 115 134 24 6 44 20 13 16 12 1 0 0 0 0 0 0 0 0 0 0 10 0 0 15 235 338 400 521
64 312 190 0 0 0 60 23 126 68 143 212 268 59 133 28 154 26 23 44 3 28 2 8 0 0 0 0 0 0 0 0 0 0 0 0 0 0 0 0 10 44 248
99 538 269 150 21 9 0 0 0 0 0 354 169 158 49 22 0 0 0 0 0 9 17 0 0 0 0 0 0 0 0 0 0 0 0 0 0 0 0 0 1 20 26
214 747 351 138 109 42 111 17 22 54 2 5 37 0 0 8 0 0 0 0 0 0 0 0 0 0 0 0 0 0 0 0 0 0 0 0 0 0 0 0 0 0 10
95 845 185 215 318 162 149 215 105 50 3 32 0 0 0 0 0 0 0 0 0 0 0 0 0 0 0 0 0 0 0 0 0 0 0 0 0 0 0 0 0 0 7
256 389 175 509 565 119 139 114 156 0 0 0 0 0 0 0 0 0 0 0 0 0 4 0 0 0 0 0 0 0 0 0 0 0 0 0 0 0 0 0 0 0 13
562 287 26 146 445 99 73 14 0 0 0 0 0 0 0 0 0 0 0 0 0 2 0 0 0 8 2 0 0 0 0 0 0 0 0 0 0 0 0 0 7 36 63
251 0 0 0 414 38 0 0 0 0 0 0 0 0 0 0 0 0 0 0 0 0 0 0 0 0 0 0 0 0 0 0 0 0 0 0 0 0 0 0 0 11 64
18 48 0 39 4 1 1 0 0 0 0 0 0 0 0 0 0 0 0 0 0 0 0 0 0 0 0 0 0 0 0 0 0 0 0 0 0 0 0 0 0 0 15
18 0 0 0 0 0 0 0 0 0 0 0 0 0 0 0 0 0 0 0 0 0 0 0 0 0 0 0 0 0 0 0 0 0 0 0 0 0 0 0 0 0 0
0 0 0 0 0 0 0 0 0 0 0 0 0 0 0 0 0 0 0 0 0 0 0 0 0 0 0 0 0 0 0 0 0 0 0 0 0 0 0 0 0 0 0
0 0 0 0 0 0 0 0 0 0 0 0 0 0 0 0 0 0 0 0 0 0 0 0 0 0 0 0 0 0 0 0 0 0 0 0 0 0 0 0 0 0 0
0 0 0 0 0 0 0 0 0 0 0 0 0 0 0 0 0 0 0 0 0 0 0 0 0 0 0 0 0 0 0 0 0 0 0 0 0 0 0 0 0 0 4
0 0 0 0 0 0 0 0 0 0 0 0 0 0 0 0 0 0 0 0 0 0 0 0 0 0 0 0 0 0 0 0 0 0 0 0 0 0 0 0 0 0 0
0 0 0 0 0 0 0 0 0 0 0 0 0 0 0 0 0 0 0 0 0 0 0 0 0 0 0 0 8 1 1 0 0 0 1 0 1 0 0 0 0 0 0

GFSSE_con_sbcape_015.txt.gz
CAPE
524 538 804 945 908 922 928 858 819 801 856 729 692 682 689 676 658 680 724 931 976 688 755 769 758 792 791 765 755 843 918 909 1066 1130 1094 1115 1116 969 1428 1824 1236 1122 1427
509 536 730 911 972 1026 1027 993 950 994 996 805 768 741 660 565 521 552 549 472 460 399 424 448 469 488 505 510 572 676 669 721 881 988 1003 878 1150 1363 1252 1308 1464 1535 1405
488 564 720 935 1076 1101 1155 1163 1226 1080 931 878 820 740 588 491 496 454 364 284 210 219 235 281 311 333 333 389 358 374 407 400 481 644 626 496 1102 1040 689 1227 1553 1435 1501
494 539 777 1030 1180 1254 1253 1304 1320 1177 1021 929 836 659 503 458 319 244 198 191 109 62 36 22 17 10 11 19 28 53 109 177 276 196 0 314 657 871 625 510 427 1316 1379
481 619 914 1015 1135 1286 1321 1362 1308 1307 1201 955 776 557 494 305 195 90 74 46 18 5 0 0 0 0 0 0 0 0 0 10 54 0 0 50 53 408 774 804 868 1143 1055
512 625 706 862 1037 1260 1349 1410 1367 1233 931 915 808 539 398 209 54 31 15 1 0 0 0 0 0 0 0 0 0 0 0 0 0 0 0 27 281 602 925 758 813 997 897
681 685 724 851 1011 1154 1236 1173 1201 1005 899 949 814 622 315 176 70 27 4 0 0 0 0 0 0 0 0 0 0 0 0 1 0 0 0 0 0 474 668 235 865 1238 946
886 880 874 922 964 1016 1083 1017 937 866 900 905 833 598 333 228 135 41 6 0 0 0 0 0 0 0 0 0 0 0 0 0 0 0 30 2 72 853 829 328 900 1130 1145
702 734 649 794 807 775 664 623 575 624 705 749 731 603 433 292 200 111 56 0 0 0 0 0 0 0 0 0 0 0 0 0 0 0 0 0 291 972 801 1044 1107 1244 1075
360 304 291 295 262 207 264 353 414 439 447 558 555 338 103 57 89 124 47 31 0 0 0 0 0 0 0 0 0 0 0 0 0 0 0 0 257 643 617 562 700 873 988
113 62 18 61 27 8 11 127 318 350 312 351 300 158 61 0 0 25 49 10 56 5 6 24 64 47 20 0 0 0 0 0 0 0 0 0 21 297 133 34 293 478 611
13 3 0 0 0 0 56 73 22 77 35 22 36 35 29 5 0 0 1 90 143 173 130 128 157 119 80 0 0 0 0 0 0 0 0 0 30 70 0 0 24 22 183
0 0 0 0 0 0 2 4 0 7 0 1 32 35 22 40 3 3 0 0 0 0 0 0 0 0 0 0 0 0 0 0 0 0 0 0 0 0 0 0 0 0 20
0 0 0 0 0 0 0 0 0 1 1 17 60 34 0 0 0 0 0 0 0 0 0 0 0 0 0 0 0 0 0 0 0 0 0 0 0 0 0 0 0 0 0
24 8 0 1 0 0 0 0 0 2 53 78 42 5 0 0 0 0 0 0 0 0 0 0 0 0 0 0 0 0 0 0 0 0 0 0 0 0 0 0 0 0 0
137 31 0 0 0 0 0 0 0 0 6 28 2 0 0 0 0 0 0 0 0 0 0 0 0 0 0 0 0 0 0 0 0 0 0 0 0 0 0 0 0 5 47
176 47 0 0 0 0 0 0 0 0 0 0 0 0 0 0 0 0 0 0 0 0 0 0 0 0 0 0 0 0 0 0 0 0 0 0 0 0 0 0 0 2 55
169 0 3 90 0 0 0 0 0 0 0 0 0 0 0 0 0 0 0 0 0 0 0 0 0 0 0 0 0 0 0 0 0 0 0 0 0 0 0 0 0 0 0
64 0 0 0 0 0 0 0 0 0 0 0 0 0 0 0 0 0 0 0 0 0 0 0 0 0 0 0 0 0 0 0 0 0 0 0 0 0 0 0 0 0 0
0 0 0 0 0 0 0 0 0 0 0 0 0 0 0 0 0 0 0 0 0 0 0 0 0 0 0 0 0 0 0 0 0 0 0 0 0 0 0 0 0 0 0
0 0 0 0 0 0 0 0 0 0 0 0 0 0 0 0 0 0 0 0 0 0 0 0 0 0 0 0 0 0 0 0 0 0 0 0 0 0 0 0 0 0 0
0 0 0 0 0 0 0 0 0 0 0 0 0 0 0 0 0 0 0 0 0 0 0 0 0 0 0 0 0 0 0 0 0 0 0 0 0 0 0 0 0 0 0
0 0 0 0 0 0 0 0 0 0 0 0 0 0 0 0 0 0 0 0 0 0 0 0 0 0 0 0 0 0 6 1 0 0 0 0 0 0 0 0 0 0 0
0 0 0 0 0 0 0 0 0 0 0 0 0 0 0 0 0 0 0 0 0 0 0 0 0 0 0 0 0 0 0 0 19 7 0 0 0 0 0 0 0 0 0
0 0 0 0 0 0 0 0 0 0 0 0 0 0 0 0 0 0 0 0 0 0 0 0 0 0 0 0 0 4 3 0 0 1 0 0 0 0 0 0 0 0 0
0 0 0 0 0 0 0 0 0 0 0 0 0 0 0 0 0 0 0 0 0 0 0 0 0 0 0 0 0 1 4 20 32 7 29 1 1 0 0 0 0 0 0

GFSSE_con_sbcape_021.txt.gz
CAPE
637 666 685 707 856 728 667 679 695 750 786 673 534 480 456 393 429 569 557 514 406 179 195 189 194 220 201 202 187 178 171 194 197 296 417 691 1029 933 854 1325 1371 896 1585
786 816 526 755 936 801 778 823 852 840 781 534 467 414 375 326 356 334 431 373 127 50 26 15 2 0 0 0 0 1 6 46 94 176 237 561 741 976 757 645 1115 867 1297
997 1019 611 720 1026 951 985 1102 1070 908 649 566 431 370 286 179 119 122 231 231 84 0 0 0 0 0 0 0 0 0 0 0 0 24 86 249 237 702 788 1260 1199 1244 1154
1012 1015 649 726 1067 1078 1193 1230 1136 887 693 546 422 334 175 83 70 49 50 136 47 0 0 0 0 0 0 0 0 0 0 0 0 11 252 394 216 671 783 591 512 803 946
980 927 747 805 1064 1223 1305 1279 1154 1019 876 691 538 250 92 14 18 17 41 49 14 0 0 0 0 0 0 0 0 0 0 0 0 135 165 297 318 821 749 262 532 597 897
927 972 763 959 1128 1352 1394 1375 1202 1034 845 712 600 330 28 0 0 0 36 44 1 0 0 0 0 0 0 0 0 0 0 0 0 53 105 76 423 722 490 747 945 927 938
983 1039 1058 960 1019 1310 1507 1376 1139 943 817 769 678 484 184 0 0 0 52 49 0 0 0 0 0 0 2 13 0 0 0 0 0 0 0 11 347 467 397 425 561 895 929
933 1149 1240 933 1123 1261 1321 1150 834 840 817 792 704 552 212 98 107 6 0 5 0 0 0 0 0 0 12 13 5 0 0 0 0 0 0 0 28 325 374 250 592 540 664
970 1133 1131 1177 1086 985 990 844 652 740 716 669 623 539 372 190 147 120 95 12 0 115 76 39 15 40 39 30 19 0 0 0 0 0 0 0 0 9 109 40 49 193 137
993 787 758 1008 1000 1084 1034 685 587 560 541 520 516 330 126 63 78 77 0 85 103 76 78 114 165 113 44 14 0 0 0 0 0 0 0 0 0 0 0 0 0 0 0
695 626 575 692 869 785 745 638 451 497 461 435 412 119 32 80 118 125 28 75 137 161 139 113 72 48 0 0 0 0 0 0 0 0 0 0 0 0 0 5 94 73 3
621 458 518 672 563 351 284 448 365 294 285 345 345 361 155 169 142 88 64 21 29 0 0 0 0 0 0 0 0 0 0 0 0 0 0 0 0 0 0 5 66 105 83
484 719 526 428 240 150 137 204 96 153 194 242 319 326 318 293 344 356 253 12 0 0 0 0 0 0 0 0 0 0 0 0 0 0 0 0 0 0 0 0 0 45 199
552 523 243 110 56 2 2 28 32 110 203 363 483 536 540 351 185 163 0 0 0 0 0 0 0 0 0 0 0 0 0 0 0 0 0 0 0 0 0 0 0 0 0
167 110 63 0 0 0 1 29 45 116 292 410 444 247 126 5 4 0 0 0 0 0 0 0 0 0 0 0 0 0 0 0 0 0 0 0 0 0 0 0 0 0 0
0 51 35 0 0 1 14 4 13 44 61 115 91 29 7 0 0 0 0 0 0 0 0 0 0 0 0 0 0 0 0 0 0 0 0 0 0 0 0 0 0 0 0
48 63 47 6 2 0 0 0 0 0 0 0 0 0 0 0 0 0 0 0 0 0 0 0 0 0 0 0 0 0 0 0 0 0 0 0 0 0 0 0 0 0 0
212 254 30 0 0 0 1 0 2 0 0 0 0 0 0 0 0 0 0 0 0 0 0 0 0 0 0 0 0 0 0 0 0 0 0 0 0 0 0 0 0 0 0
296 74 13 25 32 5 0 0 0 0 0 0 0 0 0 0 0 0 0 0 0 0 0 0 0 0 0 0 0 0 0 0 0 0 0 0 0 0 0 0 0 0 0
174 20 26 13 1 1 0 0 0 0 0 0 0 0 0 0 0 0 0 0 0 0 0 0 0 0 0 0 0 0 0 0 0 0 0 0 0 0 0 0 0 0 0
68 45 29 3 1 0 0 0 0 0 0 0 0 0 0 0 0 0 0 0 0 0 0 0 0 0 0 0 0 0 0 0 0 0 0 0 0 0 0 0 0 0 0
173 104 16 2 0 0 0 0 0 0 0 0 0 0 0 0 0 0 0 0 0 0 0 0 0 0 0 0 0 0 0 0 1 0 0 0 0 0 0 0 0 0 0
0 3 0 0 0 0 0 0 0 0 0 0 0 0 0 0 0 0 0 0 0 0 0 0 0 0 0 0 0 0 0 0 3 0 0 0 9 6 10 11 4 2 1
0 0 0 0 0 0 0 0 0 0 0 0 0 0 0 0 0 0 0 0 0 0 0 0 0 0 0 0 0 1 2 9 6 3 4 11 9 5 15 10 3 4 9
0 0 0 0 0 0 0 0 0 0 0 0 0 0 0 0 0 0 0 0 0 0 0 0 0 0 0 0 0 0 0 6 13 43 22 9 11 15 28 1 12 6 20
0 0 0 0 0 0 0 0 0 0 0 0 0 0 0 0 0 0 0 0 0 0 0 0 0 0 0 0 0 0 2 9 12 28 38 29 16 4 8 12 11 4 6

GFSSE_con_sbcape_027.txt.gz
CAPE
228 94 616 748 722 685 677 662 696 764 729 535 486 457 391 317 342 437 416 355 178 11 0 0 0 0 0 0 0 0 10 38 104 223 734 823 828 833 627 669 1088 636 1194
199 109 563 784 773 768 708 793 866 825 614 474 393 330 344 381 355 285 254 190 13 0 0 0 0 0 0 0 0 16 46 55 85 172 492 790 762 670 434 381 1140 785 1072
351 173 291 750 887 906 821 860 934 599 480 389 281 199 233 170 114 66 150 113 0 0 0 0 0 0 0 0 0 0 38 92 57 278 752 468 393 556 584 592 921 622 800
375 212 248 746 1000 1120 1067 1044 917 550 404 308 198 189 146 84 25 0 0 89 2 0 0 0 0 0 0 0 0 0 0 4 92 462 55 131 183 508 312 576 660 428 628
357 284 396 740 965 1100 986 1020 980 706 626 460 303 131 60 0 0 0 16 168 26 0 0 0 0 0 0 0 0 0 0 0 18 26 48 2 22 307 56 0 64 503 472
698 552 418 679 821 1011 909 924 941 761 645 488 321 131 0 0 0 0 216 181 8 0 0 0 0 0 0 0 0 0 0 0 0 0 10 38 49 295 103 15 63 24 562
444 642 568 511 562 728 1066 950 759 753 680 560 376 216 46 4 14 29 167 108 0 0 0 0 0 0 0 0 0 0 0 0 0 0 1 0 0 34 0 0 0 0 0
524 454 620 570 623 853 1112 878 708 720 716 595 416 229 19 32 89 19 10 18 13 21 12 0 41 53 19 0 0 0 0 0 0 0 0 0 6 15 0 0 0 0 0
171 444 687 672 624 635 622 596 594 648 619 600 524 349 232 284 295 105 36 42 62 87 124 109 66 0 0 0 0 9 0 0 0 0 2 0 0 0 0 0 0 0 0
223 807 859 830 865 837 684 535 520 499 506 526 303 201 164 151 125 83 257 147 162 140 111 107 52 0 0 0 0 0 0 30 0 5 18 0 0 0 0 0 0 0 3
594 859 697 672 821 891 657 474 457 553 497 324 111 96 38 233 247 195 85 116 57 0 26 27 0 0 6 0 0 0 1 0 0 0 7 0 0 0 0 0 0 0 102
891 895 687 948 963 799 317 185 32 24 136 347 318 355 549 510 628 216 76 63 0 0 1 0 0 0 12 0 2 0 0 0 0 0 0 0 0 0 0 0 18 66 76
895 780 723 811 703 407 255 63 1 152 450 656 747 834 854 683 697 661 365 152 177 24 127 31 29 11 0 0 0 0 0 0 0 0 0 0 0 0 0 0 0 0 0
812 755 714 549 444 196 6 2 54 450 629 845 951 997 859 729 972 656 258 88 156 70 64 37 33 0 0 0 0 0 0 0 0 0 0 0 0 0 0 0 0 0 0
422 380 333 285 174 39 37 176 611 691 1059 992 1015 971 908 737 1056 419 480 186 143 61 51 42 40 9 0 0 0 0 0 0 0 0 0 0 0 0 0 0 0 0 0
365 269 220 64 50 157 500 594 699 437 243 248 306 394 526 384 748 299 194 38 173 61 57 10 0 0 0 0 0 0 0 0 0 1 1 0 0 0 0 0 0 0 0
326 323 305 236 459 637 593 253 192 157 117 111 161 216 180 88 103 22 4 36 57 0 0 0 0 0 0 0 0 0 0 0 0 3 0 0 5 0 0 0 0 0 0
474 503 509 364 581 784 248 3 17 56 120 75 87 9 0 0 0 1 0 0 0 0 0 0 0 0 0 0 0 2 0 0 0 0 0 0 9 10 1 0 0 0 0
617 886 669 532 661 66 0 20 46 74 68 0 0 0 0 0 0 0 0 0 0 0 0 0 2 0 3 1 0 0 0 0 0 0 0 0 21 21 19 10 23 2 0
770 1014 849 713 338 93 135 22 22 0 0 0 0 0 0 0 0 0 0 0 0 0 0 1 0 0 0 0 0 0 1 0 0 0 8 12 16 10 22 29 14 18 63
1143 953 998 671 405 472 325 161 39 9 0 0 0 0 0 0 0 0 0 0 0 0 0 0 0 0 0 0 0 0 0 0 3 0 2 14 1 5 8 21 39 26 18
1005 908 907 665 623 659 463 397 155 90 29 0 0 0 0 0 0 0 0 0 0 0 0 0 0 0 0 0 0 0 0 0 0 1 0 3 17 5 22 10 9 17 22
686 790 840 810 967 696 122 48 84 71 0 0 0 0 0 0 0 0 0 0 0 0 0 0 1 6 1 3 5 4 2 2 3 1 6 7 45 19 31 33 28 12 25
838 825 870 674 322 22 2 25 34 38 46 31 8 0 0 0 0 0 0 0 0 1 3 6 4 7 15 13 15 14 17 15 12 9 8 26 48 47 106 58 49 30 14
784 762 455 67 8 1 0 2 19 2 0 0 0 0 0 0 0 0 0 5 7 5 9 12 16 24 34 32 23 24 16 18 24 35 36 33 25 37 63 81 60 37 24
617 30 2 1 0 0 0 0 0 0 0 0 0 0 0 0 0 0 0 0 0 1 18 21 36 54 56 45 62 37 31 35 32 36 41 34 53 20 27 49 81 67 74

GFSSE_con_sbcape_030.txt.gz
CAPE
5 136 577 754 742 675 588 618 645 649 637 605 510 442 408 417 384 307 214 129 63 0 0 0 0 0 0 0 0 8 28 46 105 679 717 675 542 458 285 547 812 551 1152
10 110 468 610 701 670 745 779 736 670 568 324 337 408 368 323 304 233 155 58 2 0 0 0 0 0 0 0 1 27 90 198 257 343 661 640 509 596 367 765 880 689 1071
39 118 257 568 721 803 965 924 817 615 351 202 270 333 284 242 155 176 109 16 2 0 0 0 0 0 0 0 0 0 0 114 251 394 352 197 91 231 422 847 789 879 1207
72 88 231 656 820 956 1005 866 648 485 251 319 268 202 210 83 0 0 176 50 38 0 0 0 0 0 0 0 0 0 0 19 35 79 53 70 10 99 0 21 190 444 718
57 132 427 609 712 777 974 815 629 507 377 297 232 104 0 0 26 32 161 95 69 0 0 0 0 0 0 0 0 0 0 15 47 23 0 32 10 128 21 0 0 108 664
126 338 466 374 429 772 956 842 715 504 363 257 199 154 5 45 80 123 257 221 19 0 0 0 0 0 54 14 9 9 0 0 18 0 0 2 0 56 0 0 46 0 276
258 288 344 238 387 847 965 843 687 541 398 287 216 177 169 81 117 164 297 218 60 19 20 5 1 0 76 68 33 18 0 5 0 0 0 0 45 47 0 0 0 10 16
272 190 251 346 561 784 848 744 646 539 417 303 219 222 175 192 252 254 246 240 227 122 54 50 21 15 6 13 6 0 0 33 0 1 0 0 85 58 0 0 134 114 104
189 140 165 359 581 548 533 532 527 507 450 353 313 273 275 265 236 277 320 279 217 186 182 76 47 0 0 0 0 0 0 31 0 0 0 0 75 66 67 4 87 191 135
7 125 254 334 517 398 352 389 395 412 339 218 187 162 126 118 176 248 248 244 114 87 73 45 2 0 0 0 0 0 0 0 0 0 0 0 89 23 60 90 64 56 448
62 113 129 330 558 353 309 383 441 459 260 128 92 105 0 13 14 183 85 82 2 0 5 0 0 0 46 8 10 72 8 0 0 0 0 0 0 0 0 25 79 137 158
29 204 343 558 648 361 67 136 122 90 7 10 16 0 138 566 176 154 77 57 0 0 0 6 0 0 27 0 0 0 0 0 0 0 0 0 0 0 0 0 2 13 27
241 404 519 392 445 120 115 60 35 91 400 461 627 768 658 866 662 165 232 13 0 2 71 0 47 14 1 0 0 0 0 0 0 0 0 0 0 0 0 0 0 0 0
627 574 609 497 506 171 121 12 23 498 523 921 814 826 812 687 669 527 119 166 85 28 61 66 62 41 6 0 0 0 0 0 0 0 0 0 0 0 0 0 0 0 0
481 578 346 357 292 182 328 534 617 796 877 978 809 590 698 511 509 459 133 3 0 4 17 16 0 0 0 0 0 0 0 0 0 0 0 0 0 0 0 0 0 0 0
269 309 262 194 240 322 715 685 509 418 321 277 237 413 563 359 277 97 2 0 1 0 0 0 0 0 0 0 0 0 0 0 0 0 0 0 0 1 0 0 0 0 0
201 180 180 111 295 567 500 306 186 48 57 70 143 206 141 25 9 5 0 0 0 0 0 0 0 0 0 0 0 0 0 0 0 0 0 0 0 4 3 0 0 0 0
195 254 192 245 549 367 113 33 3 3 38 19 4 0 0 0 0 0 0 0 0 0 0 0 0 0 0 0 0 0 0 0 0 0 0 0 0 0 3 0 0 0 0
313 417 566 691 392 123 68 69 63 89 0 0 0 0 0 0 0 0 0 0 0 0 0 0 0 0 0 0 0 0 0 0 0 0 0 0 8 11 2 28 45 44 1
628 573 541 746 387 201 105 83 61 2 0 0 0 0 0 0 0 0 0 0 0 0 0 0 0 0 0 0 0 0 0 0 0 0 0 2 0 0 1 0 0 0 9
1030 704 598 536 314 203 143 131 18 0 0 0 0 0 0 0 0 0 0 0 0 0 0 0 0 0 0 0 0 0 0 0 0 0 0 0 0 0 0 0 0 0 0
993 665 474 380 250 366 416 186 69 4 0 0 0 0 0 0 0 0 0 0 0 0 0 0 0 0 0 0 0 0 0 0 0 0 0 0 0 0 0 0 0 0 0
1043 863 548 448 449 508 484 209 58 9 0 0 0 0 0 0 0 0 0 0 0 0 0 0 0 0 0 0 0 0 0 0 0 0 0 0 0 0 0 0 0 6 2
886 839 760 722 712 637 349 29 10 0 0 1 1 0 0 0 0 0 0 0 0 0 0 0 0 0 0 0 0 0 0 0 0 0 0 0 0 0 0 0 1 3 0
793 875 1027 924 657 53 8 17 8 2 0 0 0 0 0 0 0 0 0 0 0 0 0 0 1 0 1 0 0 0 0 0 0 0 0 0 0 0 0 0 0 0 0
845 966 727 558 4 0 0 2 2 0 0 0 0 0 0 0 0 0 0 0 0 0 0 0 2 18 1 0 0 1 1 0 0 0 0 0 0 0 0 0 0 0 0

GFSSE_con_sbcape_033.txt.gz
CAPE
418 739 852 982 858 716 657 645 604 567 487 399 359 329 272 200 137 78 18 7 29 0 0 0 0 0 0 0 0 48 111 122 482 563 520 527 470 325 261 351 680 477 832
449 681 709 879 833 791 812 734 580 434 344 260 323 282 229 163 73 38 40 88 50 0 0 0 0 0 0 0 0 0 0 147 335 351 478 108 110 157 195 744 758 864 1166
406 525 649 670 839 933 978 822 567 365 317 267 174 228 130 95 74 44 99 38 3 0 0 0 0 0 0 0 0 1 26 21 0 0 291 0 0 0 0 77 632 553 538
275 331 526 736 882 996 860 655 390 313 274 298 210 142 107 38 48 155 90 20 0 0 0 0 0 0 0 0 0 19 40 35 39 35 15 0 0 25 0 0 0 337 474
64 360 620 621 671 814 598 534 411 374 279 211 144 90 62 26 19 64 179 93 73 0 0 0 0 0 0 13 0 3 46 55 76 3 0 0 0 0 0 0 0 0 133
265 405 287 327 417 521 770 518 384 318 203 153 143 223 107 76 78 103 239 191 32 3 0 0 0 0 17 12 32 26 47 65 0 0 0 31 0 29 0 0 0 0 0
281 210 138 187 330 740 679 510 387 306 212 196 243 260 270 127 94 146 271 205 71 13 1 0 0 4 13 21 16 20 21 61 0 0 0 0 24 44 26 0 6 13 13
53 59 167 298 558 560 607 437 306 249 196 221 264 283 285 265 280 265 276 302 212 135 61 0 0 9 0 0 0 0 0 0 0 0 0 0 136 77 52 31 200 248 187
84 71 156 237 400 372 379 296 233 175 193 221 271 269 245 208 244 286 312 317 270 226 117 4 0 0 0 0 17 0 0 2 0 0 0 0 188 72 64 87 77 93 314
82 133 149 295 261 239 234 226 177 131 144 133 126 101 81 109 182 233 200 134 54 20 11 0 0 0 0 0 0 10 0 0 0 0 0 0 60 0 0 35 99 164 177
2 31 132 224 231 146 92 163 136 103 71 64 64 34 10 0 0 40 5 22 0 0 0 0 0 0 0 0 0 6 0 0 0 0 0 2 0 0 0 0 0 1 5
6 0 0 148 171 56 42 31 20 13 1 0 0 0 0 0 0 0 0 12 0 0 0 0 0 1 0 0 0 0 0 0 0 0 0 0 0 0 0 0 0 0 0
12 3 5 89 160 0 4 0 0 0 0 0 0 0 21 78 0 0 0 1 0 0 0 0 0 0 0 0 0 0 0 0 0 0 0 0 0 0 0 0 0 0 0
57 91 73 284 65 3 8 0 0 20 162 256 325 287 140 64 0 0 0 0 0 0 0 0 0 0 0 0 0 0 0 0 0 0 0 0 0 0 0 0 0 0 0
100 158 198 143 14 11 1 95 189 275 264 274 42 96 14 2 0 0 0 0 0 0 0 0 0 0 0 0 0 0 0 0 0 0 0 0 0 0 0 0 0 0 0
299 266 88 45 4 85 224 229 226 50 0 0 3 101 18 5 0 0 0 0 0 0 0 0 0 0 0 0 0 0 0 0 0 0 0 0 0 0 0 0 0 0 0
194 76 0 0 206 192 15 0 0 0 0 0 0 0 0 0 0 0 0 0 0 0 0 0 0 0 0 0 0 0 0 0 0 0 0 0 0 5 10 0 0 0 0
49 8 0 192 119 0 0 0 0 0 0 0 0 0 0 0 0 0 0 0 0 0 0 0 0 0 0 0 0 0 0 0 0 0 0 0 0 0 17 1 0 0 0
5 0 22 259 8 0 0 0 0 0 0 0 0 0 0 0 0 0 0 0 0 0 0 0 0 0 0 0 0 0 0 0 0 0 0 0 0 0 0 40 0 1 0
12 0 265 99 0 0 0 0 0 0 0 0 0 0 0 0 0 0 0 0 0 0 0 0 0 0 0 0 0 0 0 0 0 0 0 0 0 0 0 0 0 0 0
181 303 245 75 0 0 0 0 0 0 0 0 0 0 0 0 0 0 0 0 0 0 0 0 0 0 0 0 0 0 0 0 0 0 0 0 0 0 0 0 0 0 0
248 296 238 82 7 17 9 7 0 0 0 0 0 0 0 0 0 0 0 0 0 0 0 0 0 0 0 0 0 0 0 0 0 0 0 0 0 0 0 0 0 0 0
266 307 223 148 49 64 100 9 0 0 0 0 0 0 0 0 0 0 0 0 0 0 0 0 0 0 0 0 0 0 0 0 0 0 0 0 0 0 0 0 0 0 0
242 160 175 127 73 65 128 0 0 0 0 0 0 0 0 0 0 0 0 0 0 0 0 0 0 0 0 0 0 0 0 0 0 0 0 0 0 0 0 0 0 0 0
331 193 260 223 167 203 149 0 0 0 0 0 0 0 0 0 0 0 0 0 0 0 0 0 0 0 0 0 0 0 0 0 0 0 0 0 0 0 0 0 0 0 0
291 247 291 263 254 141 0 0 0 0 0 0 0 0 0 0 0 0 0 0 0 0 0 0 0 0 0 0 0 0 0 0 0 0 0 0 0 0 0 0 0 0 0

GFSSE_con_sbcape_036.txt.gz
CAPE
825 826 850 828 773 732 769 700 498 380 329 228 169 163 137 84 28 31 54 46 19 0 0 0 0 0 0 0 0 54 207 339 463 376 332 56 34 130 208 368 618 311 499
816 793 709 748 771 844 844 669 411 330 236 110 112 154 110 70 109 137 87 45 15 0 0 0 0 0 0 0 0 0 0 147 393 234 18 0 0 0 0 136 581 292 466
831 677 618 635 820 875 780 620 417 306 83 82 50 97 97 98 121 66 46 23 2 0 0 0 0 0 0 0 0 17 5 2 34 304 28 0 0 0 0 0 43 280 390
733 583 514 665 801 842 642 474 307 166 75 126 94 64 77 116 67 85 77 42 37 0 0 0 0 0 0 0 0 264 306 290 207 26 0 0 0 0 0 0 0 0 170
520 428 611 670 738 732 507 404 312 278 188 165 184 100 69 78 54 71 168 121 91 5 0 0 0 0 0 26 12 34 0 0 0 0 0 0 0 0 0 0 0 0 0
449 417 478 533 589 631 568 457 311 212 160 210 251 247 163 51 63 108 209 184 89 12 0 0 0 0 0 25 1 0 0 0 0 0 0 0 0 25 0 0 0 0 0
330 222 231 299 472 522 490 399 290 256 243 286 293 294 242 132 87 150 272 234 138 7 0 0 0 0 0 0 0 26 0 0 0 0 0 0 3 38 0 8 32 46 9
187 156 160 281 301 339 405 332 278 259 306 332 327 288 250 222 238 274 309 291 194 133 25 0 0 0 0 0 6 0 0 0 0 0 0 0 178 0 0 59 29 101 121
143 72 83 56 157 325 315 270 200 225 265 298 268 227 206 207 245 275 298 293 220 107 10 0 0 0 0 0 0 0 0 0 0 0 0 0 72 0 0 0 15 55 58
7 2 2 132 94 152 175 190 166 172 182 183 176 147 129 148 189 201 167 167 113 22 0 0 0 0 0 0 0 0 0 0 0 0 0 0 0 0 0 0 0 3 4
70 10 0 84 135 121 108 136 152 166 141 111 103 66 20 5 9 16 0 14 0 0 0 0 0 0 0 8 0 0 0 0 0 0 0 0 0 0 0 0 0 0 0
9 77 11 38 65 80 70 26 5 8 2 0 0 0 0 0 0 0 0 0 0 0 0 0 0 0 0 0 0 0 0 0 0 0 0 0 0 0 0 0 0 0 0
10 1 4 100 57 12 3 0 0 0 0 0 0 0 0 0 0 0 0 0 0 0 0 0 0 0 0 0 0 0 0 0 0 0 0 0 0 0 0 2 9 0 0
0 0 9 18 58 0 0 0 0 0 0 8 23 25 3 0 0 0 0 0 0 0 0 0 0 0 0 0 0 0 0 0 0 0 0 0 0 0 0 12 6 0 0
5 22 26 33 92 0 0 0 0 7 32 11 1 0 0 0 0 0 0 0 0 0 0 0 0 0 0 0 0 0 0 0 0 0 0 0 0 0 2 23 0 0 0
13 27 24 172 31 1 25 29 48 15 2 0 0 0 0 0 0 0 0 0 0 0 0 0 0 0 0 0 0 0 0 0 0 0 0 0 0 0 10 3 0 0 0
72 74 114 117 2 90 31 0 0 0 0 0 0 0 0 0 0 0 0 0 0 0 0 0 0 0 0 0 0 0 0 0 0 0 0 0 0 5 18 0 0 0 0
286 165 12 69 29 0 0 0 0 0 0 0 0 0 0 0 0 0 0 0 0 0 0 0 0 0 0 0 0 0 0 0 0 0 0 0 0 0 12 0 0 0 0
233 11 40 16 0 0 0 0 0 0 0 0 0 0 0 0 0 0 0 0 0 0 0 0 0 0 0 0 0 0 0 0 0 0 0 0 0 0 0 0 0 0 0
89 0 106 0 0 0 0 0 0 0 0 0 0 0 0 0 0 0 0 0 0 0 0 0 0 0 0 0 0 0 0 0 0 0 0 0 0 0 0 0 0 0 0
0 0 87 0 0 0 0 0 0 0 0 0 0 0 0 0 0 0 0 0 0 0 0 0 0 0 0 0 0 0 0 0 0 0 0 0 0 0 0 0 0 0 0
11 127 51 1 0 0 0 0 0 0 0 0 0 0 0 0 0 0 0 0 0 0 0 0 0 0 0 0 0 0 0 0 0 0 0 0 0 0 0 0 0 0 0
157 198 118 16 0 0 0 0 0 0 0 0 0 0 0 0 0 0 0 0 0 0 0 0 0 0 0 0 0 0 0 0 0 0 0 0 0 0 0 0 0 0 0
130 209 161 17 0 0 0 0 0 0 0 0 0 0 0 0 0 0 0 0 0 0 0 0 0 0 0 0 0 0 0 0 0 0 0 0 0 0 0 0 0 0 0
15 20 14 30 0 0 2 0 0 0 0 0 0 0 0 0 0 0 0 0 0 0 0 0 0 0 0 0 0 0 0 0 0 0 0 0 0 0 0 0 0 0 0
64 49 63 22 48 20 9 0 0 0 0 0 0 0 0 0 0 0 0 0 0 0 0 0 0 0 0 0 0 0 0 0 0 0 0 0 0 0 0 0 0 0 0

GFSSE_con_sbcape_042.txt.gz
CAPE
774 737 760 774 659 501 409 338 299 233 153 55 5 13 61 67 92 101 92 77 66 30 12 0 8 156 313 348 150 27 4 17 90 26 0 0 0 1 27 139 155 97 315
790 702 726 758 652 477 390 265 185 123 78 25 16 67 138 128 124 119 45 65 95 1 0 0 0 0 7 298 300 233 40 110 0 0 0 0 0 0 0 0 16 104 204
842 715 670 725 645 504 374 252 174 109 48 12 22 64 155 139 86 54 48 76 68 68 5 66 216 164 46 3 303 425 25 0 0 0 0 0 0 0 0 0 0 0 7
820 600 595 758 585 454 323 206 130 70 77 128 129 71 110 83 90 108 78 52 101 98 21 119 218 274 194 381 439 214 0 0 0 0 0 0 0 2 1 0 0 0 0
727 468 626 603 462 424 284 177 133 127 164 223 180 90 104 106 84 188 123 98 129 111 47 22 79 173 229 130 77 49 0 0 0 0 0 0 0 7 11 10 4 3 2
616 473 551 460 416 393 349 284 250 234 233 178 159 197 183 140 87 253 182 163 155 100 23 0 22 22 20 18 23 0 0 0 0 0 0 0 0 5 8 14 15 21 21
602 514 427 318 382 492 491 372 353 323 281 241 257 286 277 280 207 327 242 179 138 146 33 11 29 61 23 0 0 0 0 0 0 0 0 0 0 5 3 4 10 10 13
173 306 260 329 404 439 404 364 370 380 356 341 332 347 366 360 324 302 234 134 106 81 68 38 6 18 24 0 0 0 0 0 0 0 0 0 3 3 5 1 0 2 6
3 70 62 15 125 266 285 325 371 424 387 377 370 369 342 298 277 238 201 158 133 142 110 33 0 0 12 7 0 0 0 0 0 0 0 0 9 1 3 0 0 0 3
5 5 5 3 25 111 206 352 380 357 336 354 320 254 218 228 231 205 208 200 126 103 148 146 24 0 0 0 0 0 0 0 0 0 0 0 14 16 14 1 0 0 1
5 1 12 17 35 108 159 281 302 380 298 271 219 193 42 20 25 0 67 111 96 88 73 26 1 0 0 0 0 0 0 0 0 0 0 0 0 1 22 19 2 0 0
9 5 0 13 24 92 91 92 92 135 42 22 26 6 5 0 0 0 1 8 22 23 4 0 0 0 0 0 0 0 0 0 0 0 0 0 0 0 24 27 14 0 0
16 20 5 1 19 135 68 7 9 4 0 0 0 0 0 0 0 0 0 0 0 0 0 0 0 0 0 0 0 0 0 0 0 0 0 0 0 0 4 26 20 0 0
3 2 0 10 115 67 22 0 0 0 0 0 0 0 0 0 0 0 0 0 0 0 0 0 0 0 0 0 0 0 0 0 0 0 0 0 0 0 0 27 15 9 0
1 0 0 18 118 23 12 0 0 0 0 0 0 0 0 0 0 0 0 0 0 0 0 0 0 0 0 0 0 0 0 0 0 0 0 0 0 0 2 29 13 12 9
0 0 0 53 55 0 0 0 0 0 0 0 0 0 0 0 0 0 0 0 0 0 0 0 0 0 0 0 0 0 0 0 0 0 0 0 0 32 20 1 1 2 2
0 0 2 16 26 0 0 0 0 0 0 0 0 0 0 0 0 0 0 0 0 0 0 0 0 0 0 0 0 0 0 0 0 0 0 0 0 0 0 0 0 0 0
0 7 6 37 0 0 0 0 0 0 0 0 0 0 0 0 0 0 0 0 0 0 0 0 0 0 0 0 0 0 0 0 0 0 0 0 0 0 0 0 0 0 0
0 24 21 39 0 0 0 0 0 0 0 0 0 0 0 0 0 0 0 0 0 0 0 0 0 0 0 0 0 0 0 0 0 0 0 0 0 0 0 0 0 0 0
9 52 17 1 0 0 0 0 0 0 0 0 0 0 0 0 0 0 0 0 0 0 0 0 0 0 0 0 0 0 0 0 0 0 0 0 0 0 0 0 0 0 0
31 0 10 0 0 0 0 0 0 0 0 0 0 0 0 0 0 0 0 0 0 0 0 0 0 0 0 0 0 0 0 0 0 0 0 0 0 0 0 0 0 0 0
78 10 4 0 0 0 0 0 0 0 0 0 0 0 0 0 0 0 0 0 0 0 0 0 0 0 0 0 0 0 0 0 0 0 0 0 0 0 0 0 0 0 0
66 0 0 0 0 0 0 0 0 0 0 0 0 0 0 0 0 0 0 0 0 0 0 0 0 0 0 0 0 0 0 0 0 0 0 0 0 0 0 0 0 0 0
119 0 3 0 0 0 0 0 0 0 0 0 0 0 0 0 0 0 0 0 0 0 0 0 0 0 0 0 0 0 0 0 0 0 0 0 0 0 0 0 0 0 0
67 0 0 0 0 0 0 0 0 0 0 0 0 0 0 0 0 0 0 0 0 0 0 0 0 0 0 0 0 0 0 0 0 0 0 0 0 0 0 0 0 0 0
1 0 0 0 0 0 0 0 0 0 0 0 0 0 0 0 0 0 0 0 0 0 0 0 0 0 0 0 0 0 0 0 0 0 0 0 0 0 0 0 0 0 0

GFSSE_con_sbcape_045.txt.gz
CAPE
673 584 715 821 770 638 562 512 428 343 261 140 88 72 81 90 102 126 156 242 312 328 301 395 479 333 75 0 0 0 0 0 0 0 2 0 0 0 18 107 246 167 263
756 565 659 777 774 669 569 415 274 208 139 131 161 144 129 160 159 131 190 189 162 61 46 139 426 421 180 0 0 0 0 0 0 0 0 0 0 0 0 0 24 56 116
825 613 641 661 701 633 460 324 241 211 178 127 138 208 222 145 122 201 146 158 203 131 135 125 155 357 341 28 50 0 0 0 0 0 0 0 0 4 2 0 0 0 3
834 665 613 617 567 507 375 298 236 194 191 211 247 251 132 134 182 162 174 189 410 517 392 301 147 220 342 240 89 5 0 0 0 0 0 0 4 13 12 7 5 3 1
823 698 673 574 399 379 286 211 204 284 281 261 222 200 209 200 228 227 189 181 335 671 441 375 342 347 262 165 83 13 0 0 0 0 0 2 5 21 22 27 29 29 20
854 721 589 364 296 329 284 239 261 303 246 216 164 213 241 300 315 271 189 177 216 403 417 396 252 56 127 60 11 0 0 0 0 0 0 4 8 13 14 16 21 41 39
899 795 526 259 263 356 362 331 349 248 229 204 195 225 287 365 367 226 179 178 159 271 310 132 112 58 39 11 0 0 0 0 0 0 0 0 10 8 5 3 11 13 10
475 536 396 358 401 376 291 300 288 257 289 302 288 337 402 307 263 232 203 198 142 105 181 186 110 46 4 0 0 0 0 0 0 0 0 1 15 6 3 1 1 5 8
57 255 120 80 90 128 362 220 224 319 354 363 336 324 263 197 139 152 202 227 189 83 51 119 149 74 12 0 0 0 0 0 0 0 0 0 0 6 3 0 1 1 2
7 10 3 10 36 95 373 267 223 301 343 363 289 183 156 148 184 197 168 194 269 199 87 36 25 42 0 0 0 0 0 0 0 0 0 0 11 18 13 0 0 2 3
8 8 0 2 49 99 355 394 269 327 287 243 203 145 36 13 10 0 62 109 151 209 76 9 0 0 0 0 0 0 0 0 0 0 0 0 0 17 21 18 0 1 2
6 10 5 17 20 104 221 224 215 234 144 120 81 53 31 62 25 3 11 58 76 22 0 0 0 0 0 0 0 0 0 0 0 0 0 0 0 1 27 15 7 2 1
4 15 24 8 3 117 176 171 72 67 76 99 61 39 55 59 55 0 0 0 0 0 0 0 0 0 0 0 0 0 0 0 0 0 0 0 0 0 26 9 9 1 1
3 8 0 0 0 58 59 92 40 45 31 38 10 41 85 19 6 0 0 0 0 0 0 0 0 0 0 0 0 0 0 0 0 0 0 0 0 0 16 6 2 5 0
7 31 15 76 193 158 85 43 34 28 12 51 21 51 88 11 0 0 0 0 0 0 0 0 0 0 0 0 0 0 0 0 0 0 0 0 0 0 8 13 3 6 3
16 2 43 100 195 120 51 6 4 26 35 51 52 64 138 145 16 0 0 0 0 0 0 0 0 0 0 0 0 0 0 0 0 0 0 0 0 15 15 2 4 0 1
7 0 6 64 216 116 35 0 0 0 64 192 193 196 149 5 0 0 0 0 0 0 0 0 0 0 0 0 0 0 0 0 0 0 0 0 0 0 0 0 0 0 2
7 0 1 43 212 45 5 0 0 72 235 146 57 11 0 0 0 0 0 0 0 0 0 0 0 0 0 0 0 0 0 0 0 0 0 0 0 0 0 0 0 0 0
17 0 0 83 273 65 3 1 2 75 128 38 0 0 0 0 0 0 0 0 0 0 0 0 0 0 0 0 0 0 0 0 0 0 0 0 0 0 0 0 0 0 0
47 38 34 115 235 154 14 3 7 31 21 0 0 0 0 0 0 0 0 0 0 0 0 0 0 0 0 0 0 0 0 0 0 0 0 0 0 0 0 0 0 0 0
104 155 166 212 216 96 13 16 22 32 0 0 0 0 0 0 0 0 0 0 0 0 0 0 0 0 0 0 0 0 0 0 0 0 0 0 0 0 0 0 0 0 0
127 151 181 205 193 135 76 27 20 41 3 0 0 0 0 0 0 0 0 0 0 0 0 0 0 0 0 0 0 0 0 0 0 0 0 0 0 0 0 0 0 0 0
205 148 216 221 222 207 106 11 0 0 0 0 0 0 0 0 0 0 0 0 0 0 0 0 0 0 0 0 0 0 0 0 0 0 0 0 0 0 0 0 0 0 0
345 246 200 226 157 151 60 31 0 30 7 0 0 0 0 0 0 0 0 0 0 0 0 0 0 0 0 0 0 0 0 0 0 0 0 0 0 0 0 1 0 0 0
580 309 272 204 148 91 26 34 0 34 15 0 0 0 0 0 0 0 0 0 0 0 0 0 0 0 0 0 0 0 0 0 0 0 0 0 0 0 0 2 4 0 0
605 359 225 166 132 79 26 1 0 0 0 0 0 0 0 0 0 0 0 0 0 0 0 0 0 0 0 0 0 0 0 0 0 0 0 0 0 0 1 0 10 0 0

GFSSE_con_sbcape_048.txt.gz
CAPE
857 510 856 987 1047 953 882 803 699 588 476 285 140 116 145 187 243 320 435 514 705 850 569 161 134 6 0 0 0 0 0 0 0 0 1 0 0 1 0 32 325 151 259
992 413 803 902 1041 959 848 662 516 368 256 199 172 159 164 227 279 421 504 632 753 819 577 275 26 0 0 0 0 0 0 0 0 45 44 0 3 1 0 0 6 34 125
1086 518 672 836 895 853 722 520 366 272 223 148 243 270 277 279 395 277 256 316 476 710 590 474 7 0 0 0 9 1 0 0 7 0 22 0 4 11 8 3 12 5 14
1133 617 427 854 849 699 511 383 274 208 179 264 346 300 283 396 305 352 393 483 546 589 428 521 110 0 1 25 28 8 0 0 0 6 2 3 1 13 22 16 12 13 7
1081 730 674 808 709 582 435 325 269 274 299 371 280 350 439 399 406 412 611 725 890 893 528 471 204 3 25 98 68 9 0 0 0 0 0 6 4 7 7 24 42 36 28
1187 908 540 515 506 491 390 354 389 326 289 243 280 420 467 479 419 445 470 843 1007 989 637 479 22 19 69 53 28 0 0 0 0 0 5 7 5 8 8 18 12 6 13
1189 951 643 288 355 423 472 530 430 289 208 239 319 404 456 484 439 369 343 529 826 885 505 132 30 15 51 25 0 0 0 0 0 0 1 8 7 2 1 1 2 3 9
798 616 422 272 292 344 424 441 294 220 216 262 351 441 490 413 347 348 252 348 419 336 226 178 111 78 26 0 0 0 0 0 0 0 0 4 7 5 2 3 6 5 5
149 229 195 201 98 88 115 239 271 271 305 346 380 349 352 292 266 268 207 198 280 256 212 189 91 20 0 0 0 0 0 0 0 0 0 1 12 6 2 0 4 5 7
2 5 2 0 0 95 133 282 364 327 329 358 311 238 170 203 241 267 192 198 169 220 246 205 26 0 0 0 0 0 0 0 0 0 0 0 22 21 12 0 4 8 8
6 6 11 0 0 8 96 260 422 375 289 208 235 184 48 9 11 23 119 280 216 144 75 21 0 0 0 0 0 0 0 0 0 0 0 0 7 22 14 2 0 2 4
7 9 9 20 8 31 109 202 369 303 213 140 108 70 65 66 49 10 61 152 70 20 0 0 0 0 0 0 0 0 0 0 0 0 0 0 0 27 14 10 4 1 1
7 10 2 0 1 19 107 263 312 251 261 179 207 92 136 102 44 7 13 0 0 0 0 0 0 0 0 0 0 0 0 0 0 0 0 0 0 1 19 9 12 5 1
13 11 11 9 34 57 25 154 212 122 88 119 183 194 188 154 51 28 34 19 0 0 0 0 0 0 0 0 0 0 0 0 0 0 0 0 0 0 34 12 8 6 0
15 6 24 45 55 43 60 209 152 198 80 98 184 225 96 63 44 24 53 9 0 0 0 0 0 0 0 0 0 0 0 0 0 0 0 0 0 0 39 15 5 2 0
3 5 6 47 36 53 137 261 232 169 105 202 102 182 289 66 82 39 65 26 16 0 0 0 0 0 0 0 0 0 0 0 0 0 0 0 0 0 7 2 2 1 0
7 20 41 33 41 14 95 212 132 98 57 62 186 449 483 355 193 68 46 5 0 0 0 0 0 0 0 0 0 0 0 0 0 0 0 0 0 0 0 0 0 0 0
7 39 121 99 119 189 152 20 68 49 121 214 429 620 670 566 394 179 42 11 0 0 0 0 0 0 0 0 0 0 0 0 0 0 0 0 0 0 0 0 0 0 0
65 64 139 222 281 383 311 24 45 95 254 478 697 638 602 429 152 89 32 0 0 0 0 0 0 0 0 0 0 0 0 0 0 0 0 0 0 0 0 0 0 0 0
98 107 195 250 441 589 404 176 6 131 272 612 694 579 417 182 28 25 8 0 0 0 0 0 0 0 0 0 0 0 0 0 0 0 0 0 0 0 0 0 0 0 0
173 215 206 374 520 664 445 100 2 76 284 632 662 532 325 70 2 7 0 0 0 0 0 0 0 0 0 0 0 0 0 0 0 0 0 0 0 0 0 0 0 0 0
201 238 248 258 369 764 571 173 41 23 165 311 501 489 305 105 0 0 0 0 0 0 0 0 0 0 0 0 0 0 0 0 0 0 0 0 0 0 0 0 0 0 0
356 435 306 260 395 682 645 382 113 114 300 418 350 118 0 0 0 0 0 0 0 0 0 0 0 0 0 0 0 0 0 0 0 0 0 0 0 0 0 0 3 1 1
639 386 411 430 522 738 839 600 230 70 211 406 534 309 18 0 0 0 0 0 0 0 0 0 0 0 0 0 0 0 0 0 0 0 0 0 2 3 5 4 0 1 3
809 771 504 475 555 723 926 929 555 187 142 517 622 308 32 1 0 0 0 0 0 0 0 0 0 0 0 0 0 0 0 0 0 0 0 0 0 2 0 0 0 2 5
1211 1043 1040 716 688 744 836 883 951 739 442 509 442 322 56 0 0 0 0 0 0 0 0 0 0 0 0 0 0 0 0 0 0 0 0 0 0 0 0 2 3 10 14